Naples, Italy

6:42 PM CEST on April 29, 2017 (GMT +0200)
Capodichino Mil

Weather History for LIRN - December, 2013

Change the Weather History Date:

Friday, December 20, 2013

  Actual Average Record
Temperature  
Mean Temperature 53 °F -  
Max Temperature 62 °F 55 °F 65 °F (2014)
Min Temperature 44 °F 40 °F 30 °F (2001)
Degree Days  
Heating Degree Days 12    
Growing Degree Days 3 (Base 50)    
Moisture  
Dew Point 44 °F    
Average Humidity 72    
Maximum Humidity 87    
Minimum Humidity 52    
Precipitation  
Precipitation 0.00 in 0.14 in - ()
Sea Level Pressure  
Sea Level Pressure 30.34 in    
Wind  
Wind Speed 3 mph ()    
Max Wind Speed 6 mph    
Max Gust Speed -    
Visibility 5.0 miles    
Events      
Averages and records for this station are not official NWS values.
T = Trace of Precipitation, MM = Missing Value Source: Averaged Metar Reports

Daily Weather History Graph

Daily Weather History Graph

Search for Another Location

Airport or City:

Trip Planner

Search our weather history database for the weather conditions in past years. The results will help you decide how hot, cold, wet, or windy it might be!

Date:

Astronomy

Dec. 20, 2013 Rise Set
Actual Time 7:23 AM CET 4:37 PM CET
Civil Twilight 6:52 AM CET 5:08 PM CET
Nautical Twilight 6:17 AM CET 5:43 PM CET
Astronomical Twilight 5:44 AM CET 6:16 PM CET
Moon 7:43 PM CET (12/20) 9:06 AM CET (12/20)
Length of Visible Light 10h 16m
Length of Day
9h 14m
Waning Gibbous, 92% of the Moon is Illuminated
Dec 20
Waning Gibbous
Dec 25
Last Quarter
Jan 1
New
Jan 8
First Quarter
Jan 16
Full

Hourly Weather History & Observations

Time (CET) Temp. Windchill Dew Point Humidity Pressure Visibility Wind Dir Wind Speed Gust Speed Precip Events Conditions
12:20 AM 44.6 °F - 41.0 °F 87% 30.21 in 3.7 mi Variable 2.3 mph - N/A   Partly Cloudy
12:50 AM 44.6 °F 43.1 °F 41.0 °F 87% 30.21 in 5.0 mi North 3.5 mph - N/A   Scattered Clouds
1:00 AM 46 °F - 41 °F 77% 30.23 in 5 mi NNW 2.3 mph - -   Partly Cloudy
1:20 AM 46.4 °F 45.2 °F 41.0 °F 81% 30.21 in 5.0 mi North 3.5 mph - N/A   Scattered Clouds
1:50 AM 46.4 °F 44.3 °F 41.0 °F 81% 30.21 in 5.0 mi NNW 4.6 mph - N/A   Scattered Clouds
4:20 AM 48.2 °F - 41.0 °F 76% 30.21 in 5.0 mi Variable 2.3 mph - N/A   Scattered Clouds
6:50 AM 46.4 °F 45.2 °F 41.0 °F 81% 30.24 in 6.2 mi NW 3.5 mph - N/A   Scattered Clouds
7:20 AM 48.2 °F - 41.0 °F 76% 30.27 in 6.2 mi North 3.5 mph - N/A   Mostly Cloudy
7:50 AM 48.2 °F - 41.0 °F 76% 30.27 in 6.2 mi NE 4.6 mph - N/A   Mostly Cloudy
8:50 AM 50.0 °F - 42.8 °F 76% 30.30 in - NNW 3.5 mph - N/A   Clear
9:20 AM 50.0 °F - 41.0 °F 71% 30.30 in - North 4.6 mph - N/A   Clear
9:50 AM 51.8 °F - 42.8 °F 71% 30.30 in - North 5.8 mph - N/A   Clear
10:20 AM 55.4 °F - 42.8 °F 63% 30.33 in - North 3.5 mph - N/A   Clear
10:50 AM 57.2 °F - 42.8 °F 59% 30.33 in - North 3.5 mph - N/A   Clear
11:20 AM 59.0 °F - 42.8 °F 55% 30.33 in - NNE 3.5 mph - N/A   Clear
11:50 AM 60.8 °F - 44.6 °F 55% 30.33 in - NNE 3.5 mph - N/A   Clear
12:20 PM 60.8 °F - 44.6 °F 55% 30.33 in - Variable 2.3 mph - N/A   Clear
12:50 PM 60.8 °F - 44.6 °F 55% 30.30 in - NE 3.5 mph - N/A   Clear
1:20 PM 60.8 °F - 42.8 °F 52% 30.33 in - NNE 3.5 mph - N/A   Clear
1:50 PM 62.6 °F - 44.6 °F 52% 30.33 in - Variable 2.3 mph - N/A   Clear
2:20 PM 60.8 °F - 46.4 °F 59% 30.33 in - SW 5.8 mph - N/A   Clear
2:50 PM 60.8 °F - 46.4 °F 59% 30.33 in - SW 3.5 mph - N/A   Clear
3:20 PM 60.8 °F - 46.4 °F 59% 30.33 in - WSW 4.6 mph - N/A   Clear
3:50 PM 59.0 °F - 48.2 °F 67% 30.36 in 6.2 mi West 4.6 mph - N/A   Scattered Clouds
4:20 PM 57.2 °F - 48.2 °F 72% 30.36 in 6.2 mi West 3.5 mph - N/A   Scattered Clouds
4:50 PM 57.2 °F - 44.6 °F 63% 30.36 in - West 3.5 mph - N/A   Clear
5:20 PM 55.4 °F - 44.6 °F 67% 30.36 in - WNW 3.5 mph - N/A   Clear
5:50 PM 55.4 °F - 44.6 °F 67% 30.39 in - Variable 2.3 mph - N/A   Clear
6:20 PM 53.6 °F - 44.6 °F 72% 30.39 in - Variable 2.3 mph - N/A   Clear
6:50 PM 53.6 °F - 46.4 °F 77% 30.42 in - Calm Calm - N/A   Clear
7:20 PM 50.0 °F - 42.8 °F 76% 30.42 in 5.0 mi NE 2.3 mph - N/A   Unknown
7:50 PM 50.0 °F - 44.6 °F 82% 30.45 in 5.0 mi Variable 1.2 mph - N/A   Unknown
8:20 PM 50.0 °F - 44.6 °F 82% 30.45 in 4.3 mi NNW 2.3 mph - N/A   Unknown
8:50 PM 51.8 °F - 44.6 °F 76% 30.45 in 4.3 mi Variable 2.3 mph - N/A   Unknown
9:20 PM 50.0 °F - 44.6 °F 82% 30.45 in 4.3 mi Variable 2.3 mph - N/A   Unknown
9:50 PM 48.2 °F - 44.6 °F 87% 30.45 in 4.3 mi Variable 2.3 mph - N/A   Unknown
10:20 PM 48.2 °F - 44.6 °F 87% 30.48 in 4.3 mi NNW 2.3 mph - N/A   Unknown
10:50 PM 46.4 °F 45.2 °F 41.0 °F 81% 30.48 in 4.3 mi NNW 3.5 mph - N/A   Unknown
11:20 PM 48.2 °F - 42.8 °F 82% 30.48 in 4.3 mi North 3.5 mph - N/A   Unknown
11:50 PM 46.4 °F - 41.0 °F 81% 30.48 in 4.3 mi North 2.3 mph - N/A   Unknown